| time (UTC) | temp F | wind direction | speed knots | gust knots | rain 1hr in | rain 24hr in | rain mn in | humidity % | barometer mb |
| 20260505230903 | 68 | 207 | 3.5 | 13.9 | 0.00 | 0.00 | 0.00 | 53 | 1006.4 |
| 20260505230523 | 69 | 319 | 1.7 | 6.1 | 0.00 | 0.00 | 0.00 | 57 | 1008.5 |
| 20260505230400 | 68 | 298 | 3.5 | 8.7 | 0.00 | 0.00 | 0.00 | 54 | 1006.5 |
| 20260505225856 | 67 | 252 | 4.3 | 9.6 | 0.00 | 0.00 | 0.00 | 54 | 1004.7 |
| 20260505225620 | 69 | 231 | 0.0 | 1.7 | 0.00 | 0.00 | 0.00 | 56 | 1006.2 |
| 20260505225354 | 67 | 149 | 7.0 | 9.6 | 0.00 | 0.00 | 0.00 | 54 | 1004.1 |
| 20260505224849 | 67 | 216 | 2.6 | 13.9 | 0.00 | 0.00 | 0.00 | 54 | 1003.9 |
| 20260505224621 | 69 | 195 | 3.5 | 8.7 | 0.00 | 0.00 | 0.00 | 56 | 1005.5 |
| 20260505224346 | 67 | 218 | 3.5 | 9.6 | 0.00 | 0.00 | 0.00 | 54 | 1003.8 |
| 20260505223843 | 67 | 222 | 5.2 | 10.4 | 0.00 | 0.00 | 0.00 | 54 | 1003.9 |
| 20260505223621 | 70 | 181 | 3.5 | 7.0 | 0.00 | 0.00 | 0.00 | 55 | 1005.5 |
| 20260505223340 | 67 | 269 | 7.8 | 16.5 | 0.00 | 0.00 | 0.00 | 54 | 1003.7 |
| 20260505222836 | 68 | 299 | 3.5 | 5.2 | 0.00 | 0.00 | 0.00 | 54 | 1003.6 |
| 20260505222622 | 70 | 159 | 0.9 | 4.3 | 0.00 | 0.00 | 0.00 | 55 | 1005.2 |
| 20260505222332 | 68 | 121 | 2.6 | 5.2 | 0.00 | 0.00 | 0.00 | 54 | 1003.3 |
| 20260505221830 | 68 | 241 | 4.3 | 11.3 | 0.00 | 0.00 | 0.00 | 53 | 1003.1 |
| 20260505221326 | 68 | 275 | 5.2 | 8.7 | 0.00 | 0.00 | 0.00 | 52 | 1003.5 |
| 20260505220823 | 69 | 223 | 4.3 | 10.4 | 0.00 | 0.00 | 0.00 | 52 | 1003.2 |
| 20260505220320 | 69 | 261 | 6.1 | 12.2 | 0.00 | 0.00 | 0.00 | 51 | 1003.3 |
| 20260505215818 | 70 | 228 | 4.3 | 11.3 | 0.00 | 0.00 | 0.00 | 51 | 1003.4 |
| 20260505215720 | 72 | 207 | 4.3 | 7.8 | 0.00 | 0.00 | 0.00 | 53 | 1004.8 |
| 20260505215316 | 70 | 242 | 4.3 | 5.2 | 0.00 | 0.00 | 0.00 | 51 | 1003.0 |
| 20260505214814 | 70 | 254 | 10.4 | 15.6 | 0.00 | 0.00 | 0.00 | 50 | 1003.2 |
| 20260505214721 | 73 | 199 | 0.9 | 3.5 | 0.00 | 0.00 | 0.00 | 52 | 1004.8 |
| 20260505214311 | 71 | 246 | 7.0 | 12.2 | 0.00 | 0.00 | 0.00 | 49 | 1003.2 |
| 20260505213808 | 71 | 333 | 3.5 | 10.4 | 0.00 | 0.00 | 0.00 | 49 | 1003.2 |
| 20260505213721 | 73 | 217 | 2.6 | 5.2 | 0.00 | 0.00 | 0.00 | 51 | 1004.8 |
| 20260505213306 | 72 | 185 | 3.5 | 9.6 | 0.00 | 0.00 | 0.00 | 48 | 1003.1 |
| 20260505212801 | 72 | 142 | 0.9 | 8.7 | 0.00 | 0.00 | 0.00 | 48 | 1003.2 |
| 20260505212259 | 73 | 238 | 2.6 | 7.8 | 0.00 | 0.00 | 0.00 | 47 | 1002.9 |
| 20260505211755 | 73 | 178 | 1.7 | 8.7 | 0.00 | 0.00 | 0.00 | 48 | 1003.1 |
| 20260505211720 | 75 | 162 | 1.7 | 3.5 | 0.00 | 0.00 | 0.00 | 49 | 1004.8 |
| 20260505211253 | 73 | 218 | 2.6 | 13.0 | 0.00 | 0.00 | 0.00 | 47 | 1003.1 |
| 20260505210820 | 75 | 98 | 0.9 | 4.3 | 0.00 | 0.00 | 0.00 | 49 | 1004.8 |
| 20260505210749 | 74 | 334 | 3.5 | 14.8 | 0.00 | 0.00 | 0.00 | 46 | 1003.1 |
| 20260505210246 | 74 | 276 | 3.5 | 10.4 | 0.00 | 0.00 | 0.00 | 46 | 1003.0 |
| 20260505205821 | 76 | 94 | 0.9 | 3.5 | 0.00 | 0.00 | 0.00 | 48 | 1004.8 |
| 20260505205743 | 74 | 206 | 7.0 | 10.4 | 0.00 | 0.00 | 0.00 | 45 | 1003.0 |
| 20260505205241 | 74 | 189 | 3.5 | 11.3 | 0.00 | 0.00 | 0.00 | 45 | 1003.0 |
| 20260505204920 | 77 | 221 | 1.7 | 5.2 | 0.00 | 0.00 | 0.00 | 48 | 1004.8 |
| 20260505204737 | 75 | 181 | 7.8 | 11.3 | 0.00 | 0.00 | 0.00 | 44 | 1003.1 |
| 20260505204236 | 75 | 241 | 4.3 | 13.9 | 0.00 | 0.00 | 0.00 | 44 | 1003.1 |
| 20260505203922 | 77 | 1 | 0.0 | 2.6 | 0.00 | 0.00 | 0.00 | 47 | 1004.8 |
| 20260505203732 | 75 | 235 | 3.5 | 12.2 | 0.00 | 0.00 | 0.00 | 45 | 1003.0 |
| 20260505203229 | 75 | 37 | 3.5 | 7.8 | 0.00 | 0.00 | 0.00 | 45 | 1003.1 |
| 20260505202919 | 78 | 145 | 2.6 | 9.6 | 0.00 | 0.00 | 0.00 | 46 | 1004.8 |
| 20260505202725 | 75 | 268 | 5.2 | 8.7 | 0.00 | 0.00 | 0.00 | 44 | 1003.2 |
| 20260505202221 | 76 | 221 | 1.7 | 9.6 | 0.00 | 0.00 | 0.00 | 44 | 1003.2 |
| 20260505201718 | 76 | 249 | 3.5 | 12.2 | 0.00 | 0.00 | 0.00 | 44 | 1003.2 |
| 20260505201216 | 76 | 197 | 4.3 | 13.0 | 0.00 | 0.00 | 0.00 | 43 | 1003.3 |
| 20260505201020 | 79 | 150 | 0.9 | 7.0 | 0.00 | 0.00 | 0.00 | 45 | 1004.8 |
| 20260505200714 | 77 | 280 | 7.0 | 7.8 | 0.00 | 0.00 | 0.00 | 43 | 1003.3 |
| 20260505200210 | 76 | 298 | 2.6 | 13.0 | 0.00 | 0.00 | 0.00 | 44 | 1003.4 |
| 20260505195706 | 76 | 251 | 2.6 | 12.2 | 0.00 | 0.00 | 0.00 | 43 | 1003.6 |
| 20260505195204 | 77 | 293 | 5.2 | 13.0 | 0.00 | 0.00 | 0.00 | 42 | 1003.7 |
| 20260505195120 | 80 | 199 | 3.5 | 7.8 | 0.00 | 0.00 | 0.00 | 44 | 1005.5 |
| 20260505194701 | 77 | 255 | 1.7 | 8.7 | 0.00 | 0.00 | 0.00 | 42 | 1003.5 |
| 20260505194157 | 78 | 305 | 5.2 | 10.4 | 0.00 | 0.00 | 0.00 | 41 | 1003.3 |
| 20260505193653 | 77 | 158 | 4.3 | 8.7 | 0.00 | 0.00 | 0.00 | 41 | 1003.5 |
| 20260505193151 | 78 | 184 | 1.7 | 9.6 | 0.00 | 0.00 | 0.00 | 41 | 1003.7 |
| 20260505193121 | 81 | 143 | 0.9 | 3.5 | 0.00 | 0.00 | 0.00 | 43 | 1005.2 |
| 20260505192649 | 78 | 145 | 7.0 | 9.6 | 0.00 | 0.00 | 0.00 | 41 | 1003.6 |
| 20260505192146 | 78 | 169 | 4.3 | 11.3 | 0.00 | 0.00 | 0.00 | 40 | 1003.7 |
| 20260505192122 | 81 | 127 | 1.7 | 6.1 | 0.00 | 0.00 | 0.00 | 43 | 1005.2 |
| 20260505191645 | 78 | 48 | 0.9 | 8.7 | 0.00 | 0.00 | 0.00 | 41 | 1003.6 |
| 20260505191142 | 78 | 267 | 5.2 | 9.6 | 0.00 | 0.00 | 0.00 | 42 | 1003.8 |
| 20260505191121 | 81 | 116 | 0.9 | 3.5 | 0.00 | 0.00 | 0.00 | 44 | 1005.2 |
| 20260505190638 | 78 | 228 | 6.1 | 13.0 | 0.00 | 0.00 | 0.00 | 41 | 1003.8 |
| 20260505190138 | 79 | 261 | 5.2 | 15.6 | 0.00 | 0.00 | 0.00 | 39 | 1003.8 |
| 20260505190121 | 81 | 132 | 1.7 | 6.1 | 0.00 | 0.00 | 0.00 | 43 | 1005.2 |
| 20260505185635 | 79 | 150 | 7.8 | 9.6 | 0.00 | 0.00 | 0.00 | 40 | 1003.9 |
| 20260505185131 | 78 | 279 | 4.3 | 4.3 | 0.00 | 0.00 | 0.00 | 41 | 1003.8 |
| 20260505185121 | 81 | 207 | 1.7 | 7.8 | 0.00 | 0.00 | 0.00 | 43 | 1005.2 |
| 20260505184628 | 78 | 211 | 6.1 | 10.4 | 0.00 | 0.00 | 0.00 | 41 | 1003.9 |
| 20260505184125 | 78 | 264 | 4.3 | 8.7 | 0.00 | 0.00 | 0.00 | 41 | 1004.0 |
| 20260505184122 | 80 | 195 | 2.6 | 7.0 | 0.00 | 0.00 | 0.00 | 43 | 1005.5 |
| 20260505183622 | 78 | 184 | 4.3 | 13.0 | 0.00 | 0.00 | 0.00 | 41 | 1003.7 |
| 20260505183220 | 81 | 127 | 1.7 | 4.3 | 0.00 | 0.00 | 0.00 | 43 | 1005.5 |
| 20260505183119 | 78 | 234 | 5.2 | 13.0 | 0.00 | 0.00 | 0.00 | 41 | 1003.9 |
| 20260505182615 | 78 | 272 | 5.2 | 7.0 | 0.00 | 0.00 | 0.00 | 40 | 1003.8 |
| 20260505182220 | 81 | 137 | 2.6 | 8.7 | 0.00 | 0.00 | 0.00 | 43 | 1005.5 |
| 20260505182112 | 78 | 214 | 7.0 | 7.8 | 0.00 | 0.00 | 0.00 | 41 | 1003.9 |
| 20260505181609 | 77 | 225 | 5.2 | 12.2 | 0.00 | 0.00 | 0.00 | 40 | 1004.1 |
| 20260505181221 | 80 | 188 | 2.6 | 7.0 | 0.00 | 0.00 | 0.00 | 42 | 1005.8 |
| 20260505181106 | 77 | 304 | 6.1 | 13.9 | 0.00 | 0.00 | 0.00 | 42 | 1004.2 |
| 20260505180602 | 77 | 114 | 3.5 | 11.3 | 0.00 | 0.00 | 0.00 | 42 | 1004.2 |
| 20260505180221 | 80 | 290 | 4.3 | 11.3 | 0.00 | 0.00 | 0.00 | 43 | 1006.2 |
| 20260505180100 | 76 | 69 | 5.2 | 13.0 | 0.00 | 0.00 | 0.00 | 43 | 1004.4 |
| 20260505175555 | 76 | 280 | 9.6 | 13.0 | 0.00 | 0.00 | 0.00 | 41 | 1004.7 |
| 20260505175220 | 80 | 201 | 3.5 | 10.4 | 0.00 | 0.00 | 0.00 | 42 | 1006.2 |
| 20260505175052 | 77 | 233 | 6.1 | 20.0 | 0.00 | 0.00 | 0.00 | 41 | 1004.4 |
| 20260505174549 | 77 | 248 | 13.0 | 15.6 | 0.00 | 0.00 | 0.00 | 41 | 1004.5 |
| 20260505174220 | 81 | 241 | 1.7 | 4.3 | 0.00 | 0.00 | 0.00 | 44 | 1006.2 |
| 20260505174045 | 77 | 264 | 7.8 | 15.6 | 0.00 | 0.00 | 0.00 | 41 | 1004.7 |
| 20260505173542 | 77 | 228 | 7.8 | 12.2 | 0.00 | 0.00 | 0.00 | 42 | 1004.9 |
| 20260505173222 | 81 | 168 | 0.9 | 2.6 | 0.00 | 0.00 | 0.00 | 44 | 1006.2 |
| 20260505173039 | 77 | 266 | 7.0 | 12.2 | 0.00 | 0.00 | 0.00 | 41 | 1004.6 |
| 20260505172537 | 78 | 215 | 11.3 | 13.0 | 0.00 | 0.00 | 0.00 | 41 | 1004.5 |
| 20260505172220 | 80 | 199 | 0.9 | 2.6 | 0.00 | 0.00 | 0.00 | 44 | 1006.2 |
| 20260505172033 | 78 | 268 | 5.2 | 12.2 | 0.00 | 0.00 | 0.00 | 40 | 1004.7 |
| 20260505171528 | 78 | 205 | 4.3 | 7.8 | 0.00 | 0.00 | 0.00 | 40 | 1004.8 |
| 20260505171120 | 81 | 188 | 0.9 | 3.5 | 0.00 | 0.00 | 0.00 | 42 | 1006.2 |
| 20260505171025 | 77 | 246 | 7.8 | 13.0 | 0.00 | 0.00 | 0.00 | 40 | 1004.8 |
| 20260505170522 | 78 | 251 | 12.2 | 13.9 | 0.00 | 0.00 | 0.00 | 40 | 1005.0 |
| 20260505170122 | 81 | 193 | 2.6 | 5.2 | 0.00 | 0.00 | 0.00 | 42 | 1006.5 |
| 20260505170018 | 77 | 164 | 6.1 | 14.8 | 0.00 | 0.00 | 0.00 | 41 | 1004.7 |
| 20260505165513 | 77 | 265 | 7.8 | 13.0 | 0.00 | 0.00 | 0.00 | 40 | 1005.1 |
| 20260505165121 | 80 | 237 | 2.6 | 7.0 | 0.00 | 0.00 | 0.00 | 43 | 1006.5 |
| 20260505165009 | 77 | 257 | 3.5 | 15.6 | 0.00 | 0.00 | 0.00 | 40 | 1005.2 |
| 20260505164505 | 77 | 273 | 7.0 | 11.3 | 0.00 | 0.00 | 0.00 | 40 | 1004.8 |
| 20260505164122 | 79 | 157 | 2.6 | 5.2 | 0.00 | 0.00 | 0.00 | 44 | 1006.8 |
| 20260505164004 | 76 | 254 | 5.2 | 12.2 | 0.00 | 0.00 | 0.00 | 42 | 1005.0 |
| 20260505163502 | 75 | 266 | 6.1 | 13.0 | 0.00 | 0.00 | 0.00 | 42 | 1005.4 |
| 20260505163221 | 80 | 229 | 0.9 | 2.6 | 0.00 | 0.00 | 0.00 | 43 | 1007.2 |
| 20260505163002 | 75 | 250 | 7.8 | 13.9 | 0.00 | 0.00 | 0.00 | 42 | 1005.2 |
| 20260505162456 | 77 | 253 | 6.1 | 10.4 | 0.00 | 0.00 | 0.00 | 40 | 1005.5 |
| 20260505162222 | 80 | 202 | 4.3 | 8.7 | 0.00 | 0.00 | 0.00 | 42 | 1007.2 |
| 20260505161953 | 77 | 261 | 3.5 | 7.8 | 0.00 | 0.00 | 0.00 | 42 | 1005.6 |
| 20260505161450 | 76 | 322 | 5.2 | 9.6 | 0.00 | 0.00 | 0.00 | 41 | 1005.6 |
| 20260505161236 | 80 | 130 | 1.7 | 3.5 | 0.00 | 0.00 | 0.00 | 42 | 1007.5 |
| 20260505160948 | 76 | 243 | 6.1 | 7.0 | 0.00 | 0.00 | 0.00 | 41 | 1005.7 |
| 20260505160446 | 75 | 235 | 2.6 | 13.0 | 0.00 | 0.00 | 0.00 | 43 | 1006.0 |
| 20260505160322 | 80 | 320 | 1.7 | 4.3 | 0.00 | 0.00 | 0.00 | 42 | 1007.5 |
| 20260505153322 | 78 | 221 | 1.7 | 6.1 | 0.00 | 0.00 | 0.00 | 44 | 1007.9 |
| 20260505152922 | 76 | 234 | 3.5 | 8.7 | 0.00 | 0.00 | 0.00 | 41 | 1006.1 |
| 20260505152419 | 75 | 284 | 1.7 | 5.2 | 0.00 | 0.00 | 0.00 | 41 | 1006.1 |
| 20260505151919 | 75 | 248 | 6.1 | 7.8 | 0.00 | 0.00 | 0.00 | 41 | 1006.3 |
| 20260505151415 | 75 | 272 | 2.6 | 8.7 | 0.00 | 0.00 | 0.00 | 41 | 1006.3 |
| 20260505151323 | 77 | 170 | 1.7 | 6.1 | 0.00 | 0.00 | 0.00 | 45 | 1007.9 |
| 20260505150913 | 74 | 131 | 5.2 | 8.7 | 0.00 | 0.00 | 0.00 | 41 | 1006.4 |
| 20260505150405 | 74 | 324 | 2.6 | 5.2 | 0.00 | 0.00 | 0.00 | 43 | 1006.2 |
| 20260505150322 | 77 | 191 | 2.6 | 4.3 | 0.00 | 0.00 | 0.00 | 45 | 1008.2 |
| 20260505140334 | 71 | 205 | 1.7 | 4.3 | 0.00 | 0.00 | 0.00 | 43 | 1006.3 |
| 20260505130258 | 69 | 172 | 2.6 | 6.1 | 0.00 | 0.00 | 0.00 | 44 | 1006.8 |
| 20260505124748 | 68 | 294 | 3.5 | 6.1 | 0.00 | 0.00 | 0.00 | 46 | 1007.2 |
| 20260505124420 | 69 | 196 | 1.7 | 3.5 | 0.00 | 0.00 | 0.00 | 57 | 1008.9 |
| 20260505124245 | 68 | 275 | 3.5 | 4.3 | 0.00 | 0.00 | 0.00 | 46 | 1006.9 |
| 20260505123740 | 68 | 228 | 1.7 | 7.0 | 0.00 | 0.00 | 0.00 | 46 | 1007.1 |
| 20260505123519 | 68 | 157 | 0.0 | 1.7 | 0.00 | 0.00 | 0.00 | 58 | 1008.9 |
| 20260505123237 | 67 | 247 | 3.5 | 7.0 | 0.00 | 0.00 | 0.00 | 47 | 1007.0 |
| 20260505122734 | 67 | 256 | 2.6 | 5.2 | 0.00 | 0.00 | 0.00 | 47 | 1007.1 |
| 20260505122231 | 66 | 234 | 2.6 | 7.0 | 0.00 | 0.00 | 0.00 | 47 | 1006.9 |
| 20260505121728 | 66 | 284 | 3.5 | 4.3 | 0.00 | 0.00 | 0.00 | 48 | 1007.0 |
| 20260505121519 | 65 | 112 | 0.0 | 0.9 | 0.00 | 0.00 | 0.00 | 68 | 1008.9 |
| 20260505121224 | 66 | 298 | 5.2 | 6.1 | 0.00 | 0.00 | 0.00 | 48 | 1007.2 |
| 20260505120721 | 65 | 272 | 3.5 | 9.6 | 0.00 | 0.00 | 0.00 | 48 | 1007.0 |
| 20260505120422 | 63 | 196 | 0.0 | 1.7 | 0.00 | 0.00 | 0.00 | 74 | 1009.3 |
| 20260505120217 | 65 | 258 | 1.7 | 5.2 | 0.00 | 0.00 | 0.00 | 49 | 1007.3 |
| 20260505115715 | 65 | 227 | 1.7 | 10.4 | 0.00 | 0.00 | 0.00 | 48 | 1007.1 |
| 20260505115522 | 61 | 76 | 0.0 | 2.6 | 0.00 | 0.00 | 0.00 | 83 | 1009.6 |
| 20260505115214 | 64 | 281 | 3.5 | 5.2 | 0.00 | 0.00 | 0.00 | 50 | 1007.3 |
| 20260505114711 | 63 | 218 | 2.6 | 6.1 | 0.00 | 0.00 | 0.00 | 51 | 1007.2 |
| 20260505114620 | 58 | 163 | 0.9 | 2.6 | 0.00 | 0.00 | 0.00 | 88 | 1009.6 |
| 20260505114521 | 58 | 159 | 0.0 | 1.7 | 0.00 | 0.00 | 0.00 | 89 | 1009.6 |
| 20260505114206 | 63 | 326 | 0.9 | 4.3 | 0.00 | 0.00 | 0.00 | 53 | 1007.5 |
| 20260505113703 | 62 | 188 | 5.2 | 7.8 | 0.00 | 0.00 | 0.00 | 52 | 1007.6 |
| 20260505113620 | 54 | 180 | 0.0 | 0.9 | 0.00 | 0.00 | 0.00 | 92 | 1009.6 |
| 20260505113200 | 62 | 257 | 1.7 | 2.6 | 0.00 | 0.00 | 0.00 | 54 | 1007.3 |
| 20260505112656 | 61 | 138 | 1.7 | 3.5 | 0.00 | 0.00 | 0.00 | 54 | 1007.3 |
| 20260505112622 | 51 | 22 | 0.0 | 0.0 | 0.00 | 0.00 | 0.00 | 93 | 1009.6 |
| 20260505112154 | 61 | 255 | 1.7 | 4.3 | 0.00 | 0.00 | 0.00 | 54 | 1007.3 |
| 20260505111721 | 49 | 341 | 0.9 | 3.5 | 0.00 | 0.00 | 0.00 | 93 | 1009.3 |
| 20260505111653 | 61 | 302 | 0.0 | 4.3 | 0.00 | 0.00 | 0.00 | 54 | 1007.3 |
| 20260505111149 | 61 | 211 | 3.5 | 5.2 | 0.00 | 0.00 | 0.00 | 53 | 1007.1 |
| 20260505110820 | 46 | 337 | 0.0 | 0.0 | 0.00 | 0.00 | 0.00 | 93 | 1008.9 |
| 20260505110646 | 62 | 284 | 2.6 | 7.8 | 0.00 | 0.00 | 0.00 | 53 | 1006.9 |
| 20260505110143 | 62 | 232 | 4.3 | 10.4 | 0.00 | 0.00 | 0.00 | 52 | 1006.9 |
| 20260505102119 | 58 | 241 | 3.5 | 7.0 | 0.00 | 0.00 | 0.00 | 58 | 1007.1 |
| 20260505102019 | 41 | 22 | 0.0 | 0.0 | 0.00 | 0.00 | 0.00 | 94 | 1008.9 |
| 20260505101618 | 58 | 244 | 5.2 | 8.7 | 0.00 | 0.00 | 0.00 | 57 | 1007.2 |
| 20260505101113 | 58 | 277 | 3.5 | 5.2 | 0.00 | 0.00 | 0.00 | 59 | 1007.1 |
| 20260505100610 | 58 | 226 | 4.3 | 7.0 | 0.00 | 0.00 | 0.00 | 58 | 1007.2 |
| 20260505100107 | 57 | 267 | 3.5 | 5.2 | 0.00 | 0.00 | 0.00 | 59 | 1007.0 |
| 20260505100023 | 41 | 348 | 0.0 | 2.6 | 0.00 | 0.00 | 0.00 | 94 | 1008.9 |
| 20260505095603 | 57 | 225 | 1.7 | 7.0 | 0.00 | 0.00 | 0.00 | 60 | 1007.1 |
| 20260505095100 | 57 | 258 | 3.5 | 9.6 | 0.00 | 0.00 | 0.00 | 60 | 1007.2 |
| 20260505094556 | 56 | 248 | 3.5 | 5.2 | 0.00 | 0.00 | 0.00 | 61 | 1007.2 |
| 20260505094052 | 56 | 273 | 1.7 | 2.6 | 0.00 | 0.00 | 0.00 | 62 | 1007.3 |
| 20260505094037 | 41 | 247 | 0.0 | 0.0 | 0.00 | 0.00 | 0.00 | 94 | 1008.6 |
| 20260505093549 | 56 | 239 | 2.6 | 3.5 | 0.00 | 0.00 | 0.00 | 61 | 1007.2 |
| 20260505093046 | 56 | 248 | 1.7 | 3.5 | 0.00 | 0.00 | 0.00 | 61 | 1006.9 |
| 20260505093021 | 41 | 247 | 0.0 | 0.0 | 0.00 | 0.00 | 0.00 | 93 | 1008.6 |
| 20260505092544 | 56 | 238 | 5.2 | 5.2 | 0.00 | 0.00 | 0.00 | 61 | 1006.9 |
| 20260505092042 | 56 | 262 | 0.9 | 4.3 | 0.00 | 0.00 | 0.00 | 60 | 1006.9 |
| 20260505092022 | 40 | 248 | 0.0 | 0.9 | 0.00 | 0.00 | 0.00 | 93 | 1008.6 |
| 20260505091538 | 57 | 243 | 6.1 | 6.1 | 0.00 | 0.00 | 0.00 | 60 | 1007.2 |
| 20260505091037 | 57 | 261 | 5.2 | 5.2 | 0.00 | 0.00 | 0.00 | 60 | 1007.1 |
| 20260505091021 | 40 | 22 | 0.0 | 1.7 | 0.00 | 0.00 | 0.00 | 93 | 1008.6 |
| 20260505090534 | 57 | 260 | 3.5 | 7.0 | 0.00 | 0.00 | 0.00 | 59 | 1007.1 |
| 20260505090032 | 57 | 232 | 3.5 | 7.8 | 0.00 | 0.00 | 0.00 | 59 | 1006.9 |
| 20260505085530 | 57 | 182 | 6.1 | 8.7 | 0.00 | 0.00 | 0.00 | 59 | 1007.1 |
| 20260505085028 | 57 | 247 | 1.7 | 5.2 | 0.00 | 0.00 | 0.00 | 59 | 1007.1 |
| 20260505085021 | 39 | 22 | 0.0 | 0.0 | 0.00 | 0.00 | 0.00 | 93 | 1008.8 |
| 20260505084526 | 57 | 278 | 2.6 | 7.8 | 0.00 | 0.00 | 0.00 | 59 | 1007.1 |
| 20260505084119 | 39 | 22 | 0.0 | 0.0 | 0.00 | 0.00 | 0.00 | 93 | 1008.9 |
| 20260505084023 | 57 | 188 | 5.2 | 6.1 | 0.00 | 0.00 | 0.00 | 58 | 1007.0 |
| 20260505083520 | 57 | 253 | 4.3 | 10.4 | 0.00 | 0.00 | 0.00 | 58 | 1007.2 |
| 20260505083121 | 39 | 22 | 0.0 | 1.7 | 0.00 | 0.00 | 0.00 | 93 | 1008.9 |
| 20260505083017 | 57 | 241 | 5.2 | 10.4 | 0.00 | 0.00 | 0.00 | 58 | 1007.3 |
| 20260505082512 | 57 | 228 | 3.5 | 13.9 | 0.00 | 0.00 | 0.00 | 58 | 1007.0 |
| 20260505082221 | 38 | 22 | 0.0 | 1.7 | 0.00 | 0.00 | 0.00 | 93 | 1008.9 |
| 20260505082009 | 57 | 267 | 3.5 | 5.2 | 0.00 | 0.00 | 0.00 | 59 | 1007.2 |
| 20260505081506 | 57 | 223 | 3.5 | 7.8 | 0.00 | 0.00 | 0.00 | 58 | 1007.2 |
| 20260505081222 | 38 | 292 | 0.0 | 0.0 | 0.00 | 0.00 | 0.00 | 93 | 1008.9 |
| 20260505081003 | 58 | 291 | 7.0 | 7.8 | 0.00 | 0.00 | 0.00 | 58 | 1007.5 |
| 20260505080459 | 57 | 236 | 5.2 | 9.6 | 0.00 | 0.00 | 0.00 | 58 | 1007.3 |
| 20260505080319 | 38 | 292 | 0.0 | 0.0 | 0.00 | 0.00 | 0.00 | 93 | 1008.9 |
| 20260505075955 | 57 | 253 | 3.5 | 5.2 | 0.00 | 0.00 | 0.00 | 59 | 1007.2 |
| 20260505075451 | 57 | 268 | 2.6 | 4.3 | 0.00 | 0.00 | 0.00 | 60 | 1007.3 |
| 20260505075321 | 37 | 292 | 0.0 | 0.0 | 0.00 | 0.00 | 0.00 | 92 | 1008.9 |
| 20260505074949 | 57 | 231 | 4.3 | 7.0 | 0.00 | 0.00 | 0.00 | 59 | 1007.3 |
| 20260505074446 | 57 | 253 | 5.2 | 5.2 | 0.00 | 0.00 | 0.00 | 59 | 1007.3 |
| 20260505074321 | 37 | 292 | 0.0 | 0.0 | 0.00 | 0.00 | 0.00 | 92 | 1008.9 |
| 20260505073943 | 57 | 250 | 2.6 | 7.8 | 0.00 | 0.00 | 0.00 | 59 | 1007.2 |
| 20260505073441 | 57 | 266 | 5.2 | 5.2 | 0.00 | 0.00 | 0.00 | 61 | 1007.1 |
| 20260505073322 | 38 | 292 | 0.0 | 0.0 | 0.00 | 0.00 | 0.00 | 93 | 1008.9 |
| 20260505072938 | 57 | 284 | 2.6 | 6.1 | 0.00 | 0.00 | 0.00 | 60 | 1007.2 |
| 20260505072434 | 57 | 265 | 1.7 | 6.1 | 0.00 | 0.00 | 0.00 | 61 | 1007.3 |
| 20260505072420 | 38 | 292 | 0.0 | 0.0 | 0.00 | 0.00 | 0.00 | 93 | 1008.9 |
| 20260505071930 | 57 | 233 | 3.5 | 7.8 | 0.00 | 0.00 | 0.00 | 60 | 1007.1 |
| 20260505071519 | 37 | 292 | 0.0 | 0.0 | 0.00 | 0.00 | 0.00 | 92 | 1008.9 |
| 20260505071426 | 57 | 257 | 1.7 | 7.0 | 0.00 | 0.00 | 0.00 | 61 | 1007.2 |
| 20260505070925 | 56 | 258 | 3.5 | 7.8 | 0.00 | 0.00 | 0.00 | 61 | 1007.2 |
| 20260505070522 | 38 | 292 | 0.0 | 0.0 | 0.00 | 0.00 | 0.00 | 93 | 1008.9 |
| 20260505070421 | 56 | 252 | 4.3 | 7.8 | 0.00 | 0.00 | 0.00 | 61 | 1007.2 |
| 20260505065916 | 56 | 256 | 3.5 | 7.0 | 0.00 | 0.00 | 0.00 | 62 | 1007.0 |
| 20260505065520 | 38 | 292 | 0.0 | 0.0 | 0.00 | 0.00 | 0.00 | 93 | 1008.9 |
| 20260505065413 | 56 | 259 | 2.6 | 5.2 | 0.00 | 0.00 | 0.00 | 63 | 1007.1 |
| 20260505064910 | 56 | 272 | 1.7 | 3.5 | 0.00 | 0.00 | 0.00 | 63 | 1007.2 |
| 20260505064407 | 55 | 237 | 3.5 | 6.1 | 0.00 | 0.00 | 0.00 | 64 | 1007.2 |
| 20260505063906 | 55 | 246 | 3.5 | 7.0 | 0.00 | 0.00 | 0.00 | 63 | 1007.2 |
| 20260505063521 | 38 | 292 | 0.0 | 0.0 | 0.00 | 0.00 | 0.00 | 92 | 1008.9 |
| 20260505063402 | 55 | 227 | 1.7 | 7.8 | 0.00 | 0.00 | 0.00 | 64 | 1007.2 |
| 20260505062858 | 54 | 268 | 3.5 | 7.8 | 0.00 | 0.00 | 0.00 | 66 | 1007.1 |
| 20260505062520 | 38 | 292 | 0.0 | 0.0 | 0.00 | 0.00 | 0.00 | 92 | 1008.9 |
| 20260505062355 | 53 | 280 | 2.6 | 4.3 | 0.00 | 0.00 | 0.00 | 68 | 1007.3 |
| 20260505061852 | 53 | 256 | 3.5 | 7.0 | 0.00 | 0.00 | 0.00 | 69 | 1007.0 |
| 20260505061522 | 39 | 292 | 0.0 | 0.0 | 0.00 | 0.00 | 0.00 | 93 | 1008.9 |
| 20260505061351 | 52 | 256 | 1.7 | 3.5 | 0.00 | 0.00 | 0.00 | 71 | 1007.2 |
| 20260505060848 | 51 | 245 | 0.9 | 2.6 | 0.00 | 0.00 | 0.00 | 74 | 1007.0 |
| 20260505060344 | 50 | 174 | 0.9 | 1.7 | 0.00 | 0.00 | 0.00 | 76 | 1007.2 |
| 20260505055840 | 50 | 256 | 0.0 | 1.7 | 0.00 | 0.00 | 0.00 | 77 | 1007.1 |
| 20260505055620 | 38 | 292 | 0.0 | 0.0 | 0.00 | 0.00 | 0.00 | 92 | 1008.9 |
| 20260505055336 | 50 | 135 | 0.0 | 2.6 | 0.00 | 0.00 | 0.00 | 76 | 1007.1 |
| 20260505054834 | 49 | 290 | 1.7 | 1.7 | 0.00 | 0.00 | 0.00 | 78 | 1006.9 |
| 20260505054621 | 39 | 292 | 0.0 | 0.0 | 0.00 | 0.00 | 0.00 | 93 | 1008.9 |
| 20260505054331 | 48 | 66 | 0.0 | 1.7 | 0.00 | 0.00 | 0.00 | 81 | 1007.2 |
| 20260505053829 | 46 | 76 | 0.0 | 0.9 | 0.00 | 0.00 | 0.00 | 86 | 1007.1 |
| 20260505053621 | 40 | 292 | 0.0 | 0.0 | 0.00 | 0.00 | 0.00 | 93 | 1008.9 |
| 20260505053326 | 46 | 86 | 0.9 | 1.7 | 0.00 | 0.00 | 0.00 | 86 | 1007.1 |
| 20260505052822 | 46 | 66 | 0.0 | 1.7 | 0.00 | 0.00 | 0.00 | 86 | 1007.2 |
| 20260505052620 | 40 | 292 | 0.0 | 0.0 | 0.00 | 0.00 | 0.00 | 93 | 1008.9 |
| 20260505052319 | 46 | 89 | 1.7 | 1.7 | 0.00 | 0.00 | 0.00 | 87 | 1007.0 |
| 20260505051817 | 46 | 105 | 0.9 | 1.7 | 0.00 | 0.00 | 0.00 | 87 | 1007.0 |
| 20260505051621 | 41 | 292 | 0.0 | 0.0 | 0.00 | 0.00 | 0.00 | 93 | 1008.9 |
| 20260505051314 | 46 | 99 | 1.7 | 1.7 | 0.00 | 0.00 | 0.00 | 86 | 1007.0 |
| 20260505050812 | 46 | 76 | 0.0 | 2.6 | 0.00 | 0.00 | 0.00 | 84 | 1007.1 |
| 20260505050310 | 47 | 100 | 1.7 | 1.7 | 0.00 | 0.00 | 0.00 | 82 | 1007.1 |
| 20260505041740 | 48 | 85 | 0.9 | 1.7 | 0.00 | 0.00 | 0.00 | 80 | 1006.9 |
| 20260505041620 | 42 | 292 | 0.0 | 0.0 | 0.00 | 0.00 | 0.00 | 92 | 1008.6 |
| 20260505041237 | 49 | 87 | 0.0 | 1.7 | 0.00 | 0.00 | 0.00 | 79 | 1006.9 |
| 20260505040734 | 49 | 116 | 0.0 | 1.7 | 0.00 | 0.00 | 0.00 | 79 | 1007.0 |
| 20260505040232 | 48 | 299 | 0.0 | 1.7 | 0.00 | 0.00 | 0.00 | 81 | 1006.9 |
| 20260505035729 | 48 | 245 | 0.0 | 1.7 | 0.00 | 0.00 | 0.00 | 83 | 1006.6 |
| 20260505035624 | 42 | 292 | 0.0 | 0.0 | 0.00 | 0.00 | 0.00 | 92 | 1008.6 |
| 20260505035224 | 47 | 112 | 0.9 | 1.7 | 0.00 | 0.00 | 0.00 | 86 | 1006.7 |
| 20260505034722 | 46 | 115 | 0.0 | 1.7 | 0.00 | 0.00 | 0.00 | 89 | 1006.8 |
| 20260505034624 | 43 | 292 | 0.0 | 0.0 | 0.00 | 0.00 | 0.00 | 92 | 1008.6 |
| 20260505034218 | 46 | 269 | 0.0 | 0.0 | 0.00 | 0.00 | 0.00 | 88 | 1006.8 |
| 20260505033715 | 46 | 92 | 1.7 | 1.7 | 0.00 | 0.00 | 0.00 | 87 | 1006.7 |
| 20260505033625 | 43 | 292 | 0.0 | 0.0 | 0.00 | 0.00 | 0.00 | 92 | 1008.6 |
| 20260505033213 | 47 | 128 | 1.7 | 1.7 | 0.00 | 0.00 | 0.00 | 87 | 1006.8 |
| 20260505032711 | 47 | 82 | 1.7 | 1.7 | 0.00 | 0.00 | 0.00 | 87 | 1006.8 |
| 20260505032623 | 43 | 292 | 0.0 | 0.0 | 0.00 | 0.00 | 0.00 | 92 | 1008.6 |
| 20260505032206 | 47 | 78 | 1.7 | 1.7 | 0.00 | 0.00 | 0.00 | 86 | 1006.9 |
| 20260505031704 | 47 | 87 | 1.7 | 1.7 | 0.00 | 0.00 | 0.00 | 87 | 1006.7 |
| 20260505031621 | 44 | 292 | 0.0 | 0.0 | 0.00 | 0.00 | 0.00 | 91 | 1008.8 |
| 20260505031200 | 46 | 92 | 0.9 | 1.7 | 0.00 | 0.00 | 0.00 | 88 | 1006.7 |
| 20260505030657 | 46 | 113 | 0.9 | 1.7 | 0.00 | 0.00 | 0.00 | 88 | 1006.9 |
| 20260505030623 | 44 | 292 | 0.0 | 0.0 | 0.00 | 0.00 | 0.00 | 91 | 1008.9 |
| 20260505030153 | 46 | 109 | 1.7 | 1.7 | 0.00 | 0.00 | 0.00 | 87 | 1007.1 |
| 20260505025722 | 44 | 292 | 0.0 | 0.0 | 0.00 | 0.00 | 0.00 | 91 | 1008.9 |
| 20260505025649 | 46 | 91 | 0.9 | 1.7 | 0.00 | 0.00 | 0.00 | 88 | 1007.0 |
| 20260505025148 | 46 | 93 | 1.7 | 1.7 | 0.00 | 0.00 | 0.00 | 89 | 1006.8 |
| 20260505024723 | 45 | 292 | 0.0 | 0.0 | 0.00 | 0.00 | 0.00 | 91 | 1008.9 |
| 20260505024645 | 46 | 80 | 1.7 | 1.7 | 0.00 | 0.00 | 0.00 | 89 | 1006.9 |
| 20260505024142 | 46 | 74 | 0.9 | 1.7 | 0.00 | 0.00 | 0.00 | 89 | 1006.9 |
| 20260505023723 | 45 | 292 | 0.0 | 0.0 | 0.00 | 0.00 | 0.00 | 91 | 1008.9 |
| 20260505023639 | 46 | 83 | 1.7 | 1.7 | 0.00 | 0.00 | 0.00 | 89 | 1007.1 |
| 20260505023137 | 46 | 82 | 1.7 | 1.7 | 0.00 | 0.00 | 0.00 | 88 | 1007.3 |
| 20260505022634 | 47 | 73 | 0.9 | 1.7 | 0.00 | 0.00 | 0.00 | 88 | 1007.0 |
| 20260505022131 | 47 | 78 | 0.9 | 1.7 | 0.00 | 0.00 | 0.00 | 87 | 1007.2 |
| 20260505021627 | 47 | 84 | 0.9 | 1.7 | 0.00 | 0.00 | 0.00 | 87 | 1007.1 |
| 20260505021124 | 48 | 110 | 0.9 | 0.9 | 0.00 | 0.00 | 0.00 | 86 | 1007.0 |
| 20260505020825 | 47 | 292 | 0.0 | 0.0 | 0.00 | 0.00 | 0.00 | 90 | 1008.9 |
| 20260505020620 | 48 | 59 | 0.0 | 0.0 | 0.00 | 0.00 | 0.00 | 85 | 1007.3 |
| 20260505020116 | 48 | 137 | 0.9 | 1.7 | 0.00 | 0.00 | 0.00 | 85 | 1007.1 |
| 20260505015923 | 47 | 292 | 0.0 | 0.0 | 0.00 | 0.00 | 0.00 | 90 | 1008.9 |
| 20260505015824 | 46 | 292 | 0.0 | 0.0 | 0.00 | 0.00 | 0.00 | 89 | 1008.9 |
| 20260505015613 | 48 | 153 | 1.7 | 1.7 | 0.00 | 0.00 | 0.00 | 86 | 1007.2 |
| 20260505015110 | 49 | 135 | 0.0 | 0.0 | 0.00 | 0.00 | 0.00 | 84 | 1007.0 |
| 20260505014823 | 47 | 292 | 0.0 | 0.0 | 0.00 | 0.00 | 0.00 | 90 | 1008.9 |
| 20260505014607 | 49 | 89 | 0.9 | 1.7 | 0.00 | 0.00 | 0.00 | 84 | 1007.2 |
| 20260505014104 | 49 | 96 | 0.9 | 1.7 | 0.00 | 0.00 | 0.00 | 84 | 1007.0 |
| 20260505013921 | 47 | 292 | 0.0 | 0.0 | 0.00 | 0.00 | 0.00 | 90 | 1009.0 |
| 20260505013601 | 49 | 26 | 1.7 | 1.7 | 0.00 | 0.00 | 0.00 | 83 | 1007.1 |
| 20260505013058 | 50 | 113 | 0.0 | 1.7 | 0.00 | 0.00 | 0.00 | 81 | 1006.9 |
| 20260505012556 | 49 | 78 | 1.7 | 1.7 | 0.00 | 0.00 | 0.00 | 81 | 1006.6 |
| 20260505012053 | 49 | 102 | 0.9 | 1.7 | 0.00 | 0.00 | 0.00 | 82 | 1007.0 |
| 20260505011924 | 48 | 292 | 0.0 | 0.0 | 0.00 | 0.00 | 0.00 | 89 | 1008.9 |
| 20260505011548 | 49 | 72 | 1.7 | 1.7 | 0.00 | 0.00 | 0.00 | 82 | 1006.7 |
| 20260505011046 | 49 | 80 | 1.7 | 1.7 | 0.00 | 0.00 | 0.00 | 83 | 1006.9 |
| 20260505010922 | 48 | 292 | 0.0 | 0.0 | 0.00 | 0.00 | 0.00 | 88 | 1008.9 |
| 20260505010541 | 49 | 93 | 0.0 | 1.7 | 0.00 | 0.00 | 0.00 | 82 | 1006.8 |
| 20260505010038 | 50 | 119 | 0.0 | 1.7 | 0.00 | 0.00 | 0.00 | 82 | 1006.7 |
| 20260505005923 | 49 | 292 | 0.0 | 0.0 | 0.00 | 0.00 | 0.00 | 86 | 1008.8 |
| 20260505005534 | 50 | 91 | 0.0 | 0.9 | 0.00 | 0.00 | 0.00 | 82 | 1006.7 |
| 20260505005032 | 51 | 144 | 0.0 | 1.7 | 0.00 | 0.00 | 0.00 | 80 | 1006.7 |
| 20260505004923 | 49 | 292 | 0.0 | 0.0 | 0.00 | 0.00 | 0.00 | 86 | 1008.6 |
| 20260505004529 | 51 | 150 | 1.7 | 1.7 | 0.00 | 0.00 | 0.00 | 76 | 1006.6 |
| 20260505004026 | 52 | 80 | 0.0 | 1.7 | 0.00 | 0.00 | 0.00 | 76 | 1006.3 |
| 20260505003922 | 50 | 292 | 0.0 | 0.0 | 0.00 | 0.00 | 0.00 | 85 | 1008.2 |
| 20260505003523 | 52 | 77 | 0.9 | 0.9 | 0.00 | 0.00 | 0.00 | 76 | 1006.1 |
| 20260505003020 | 53 | 66 | 0.0 | 0.9 | 0.00 | 0.00 | 0.00 | 74 | 1006.1 |
| 20260505002923 | 51 | 292 | 0.0 | 0.0 | 0.00 | 0.00 | 0.00 | 84 | 1008.2 |
| 20260505002515 | 53 | 89 | 0.0 | 1.7 | 0.00 | 0.00 | 0.00 | 73 | 1006.1 |
| 20260505002014 | 53 | 93 | 1.7 | 1.7 | 0.00 | 0.00 | 0.00 | 71 | 1006.0 |
| 20260505001511 | 53 | 104 | 1.7 | 1.7 | 0.00 | 0.00 | 0.00 | 71 | 1006.1 |
| 20260505001023 | 51 | 292 | 0.0 | 0.0 | 0.00 | 0.00 | 0.00 | 79 | 1007.9 |
| 20260505001008 | 53 | 100 | 0.9 | 1.7 | 0.00 | 0.00 | 0.00 | 71 | 1005.8 |
| 20260505000923 | 51 | 292 | 0.0 | 0.0 | 0.00 | 0.00 | 0.00 | 78 | 1007.9 |
| 20260505000822 | 52 | 292 | 0.0 | 0.0 | 0.00 | 0.00 | 0.00 | 78 | 1007.9 |
| 20260505000506 | 54 | 103 | 0.0 | 0.9 | 0.00 | 0.00 | 0.00 | 71 | 1005.7 |
| 20260505000003 | 54 | 89 | 0.9 | 1.7 | 0.00 | 0.00 | 0.00 | 69 | 1005.8 |
| 20260504235823 | 53 | 292 | 0.0 | 0.0 | 0.00 | 0.00 | 0.00 | 78 | 1007.9 |
| 20260504235500 | 55 | 99 | 0.9 | 1.7 | 0.00 | 0.00 | 0.00 | 69 | 1005.8 |
| 20260504234956 | 55 | 87 | 0.9 | 1.7 | 0.00 | 0.00 | 0.00 | 70 | 1005.8 |
| 20260504234823 | 54 | 292 | 0.0 | 0.0 | 0.00 | 0.00 | 0.00 | 78 | 1007.9 |
| 20260504234453 | 55 | 92 | 1.7 | 1.7 | 0.00 | 0.00 | 0.00 | 68 | 1005.9 |
| 20260504233950 | 55 | 88 | 1.7 | 1.7 | 0.00 | 0.00 | 0.00 | 69 | 1005.6 |
| 20260504233923 | 55 | 292 | 0.0 | 0.0 | 0.00 | 0.00 | 0.00 | 74 | 1007.9 |
| 20260504233445 | 56 | 101 | 0.9 | 0.9 | 0.00 | 0.00 | 0.00 | 68 | 1005.6 |
| 20260504233021 | 56 | 292 | 0.0 | 0.0 | 0.00 | 0.00 | 0.00 | 69 | 1007.6 |
| 20260504232943 | 56 | 84 | 0.9 | 1.7 | 0.00 | 0.00 | 0.00 | 67 | 1005.7 |
| 20260504232440 | 57 | 111 | 0.0 | 0.9 | 0.00 | 0.00 | 0.00 | 67 | 1005.6 |
| 20260504232023 | 57 | 292 | 0.0 | 0.0 | 0.00 | 0.00 | 0.00 | 66 | 1007.5 |
| 20260504231937 | 57 | 107 | 0.0 | 0.9 | 0.00 | 0.00 | 0.00 | 65 | 1005.5 |
| 20260504231433 | 58 | 89 | 0.0 | 1.7 | 0.00 | 0.00 | 0.00 | 64 | 1005.4 |
| 20260504231023 | 59 | 292 | 0.0 | 0.0 | 0.00 | 0.00 | 0.00 | 63 | 1007.5 |